Change the Weather History Date:

Saturday, May 25, 2013

  Actual Average Record
Temperature  
Mean Temperature 65 °F -  
Max Temperature 75 °F 75 °F 87 °F (2008)
Min Temperature 55 °F 53 °F -99 °F (2002)
Growing Degree Days 15 (Base 50)    
Moisture  
Dew Point 55 °F    
Average Humidity 72    
Maximum Humidity 100    
Minimum Humidity 48    
Precipitation  
Precipitation 0.11 in - - ()
Sea Level Pressure  
Sea Level Pressure 30.07 in    
Wind  
Wind Speed 8 mph (SE)    
Max Wind Speed 13 mph    
Max Gust Speed 18 mph    
Visibility 10 miles    
Events Rain    
Averages and records for this station are not official NWS values.
T = Trace of Precipitation, MM = Missing Value Source: NWS Daily Summary

Daily Weather History Graph

Daily Weather History Graph

Search for Another Location

Airport or City:

Trip Planner

Search our weather history database for the weather conditions in past years. The results will help you decide how hot, cold, wet, or windy it might be!

Date:

Astronomy

May. 25, 2013 Rise Set
Actual Time 5:54 AM CDT 8:39 PM CDT
Civil Twilight 5:22 AM CDT 9:12 PM CDT
Nautical Twilight 4:42 AM CDT 9:52 PM CDT
Astronomical Twilight 3:56 AM CDT 10:38 PM CDT
Moon 9:28 PM CDT (5/25) 6:22 AM CDT (5/25)
Length of Visible Light 15h 49m
Length of Day
14h 45m
Full, 100% of the Moon is Illuminated
May 25
Full
May 31
Last Quarter
Jun 8
New
Jun 16
First Quarter
Jun 23
Full

Hourly Weather History & Observations

Time (CDT) Temp. Dew Point Humidity Pressure Visibility Wind Dir Wind Speed Gust Speed Precip Events Conditions
12:15 AM 62.6 °F 42.8 °F 48% 30.18 in 10.0 mi SE 9.2 mph - N/A   Overcast
12:35 AM 62.6 °F 42.8 °F 48% 30.17 in 10.0 mi SE 6.9 mph - N/A   Overcast
12:55 AM 62.6 °F 42.8 °F 48% 30.16 in 10.0 mi SE 8.1 mph - N/A   Overcast
1:15 AM 62.6 °F 42.8 °F 48% 30.15 in 10.0 mi SE 5.8 mph - N/A   Overcast
1:35 AM 60.8 °F 42.8 °F 52% 30.15 in 10.0 mi SE 4.6 mph - N/A   Overcast
1:55 AM 60.8 °F 42.8 °F 52% 30.14 in 10.0 mi SSE 8.1 mph - N/A   Overcast
2:15 AM 60.8 °F 42.8 °F 52% 30.13 in 10.0 mi SE 9.2 mph - N/A   Overcast
2:35 AM 60.8 °F 42.8 °F 52% 30.12 in 10.0 mi SSE 9.2 mph 16.1 mph N/A   Overcast
2:55 AM 60.8 °F 42.8 °F 52% 30.12 in 10.0 mi SSE 9.2 mph - N/A   Overcast
3:15 AM 60.8 °F 44.6 °F 55% 30.12 in 10.0 mi SSE 8.1 mph - N/A Rain Light Rain
3:35 AM 60.8 °F 44.6 °F 55% 30.12 in 10.0 mi SSE 10.4 mph 18.4 mph N/A   Overcast
3:55 AM 57.2 °F 46.4 °F 67% 30.10 in 10.0 mi SSE 9.2 mph - N/A Rain Light Rain
4:15 AM 57.2 °F 44.6 °F 63% 30.09 in 10.0 mi SSE 9.2 mph - N/A   Mostly Cloudy
4:35 AM 57.2 °F 44.6 °F 63% 30.09 in 10.0 mi SSE 9.2 mph - N/A   Scattered Clouds
4:55 AM 59.0 °F 46.4 °F 63% 30.07 in 10.0 mi SSE 9.2 mph - N/A   Scattered Clouds
5:15 AM 59.0 °F 46.4 °F 63% 30.05 in 10.0 mi SSE 11.5 mph 17.3 mph N/A   Scattered Clouds
5:35 AM 60.8 °F 46.4 °F 59% 30.05 in 10.0 mi SSE 8.1 mph - N/A   Mostly Cloudy
5:55 AM 60.8 °F 48.2 °F 63% 30.07 in 10.0 mi South 9.2 mph - N/A Rain Light Rain
6:15 AM 60.8 °F 50.0 °F 68% 30.09 in 10.0 mi South 6.9 mph - N/A Rain Light Rain
6:35 AM 57.2 °F 51.8 °F 82% 30.10 in 10.0 mi South 6.9 mph - 0.03 in Rain Light Rain
6:55 AM 57.2 °F 53.6 °F 88% 30.12 in 10.0 mi West 3.5 mph - 0.04 in Rain Rain
7:15 AM 55.4 °F 55.4 °F 100% 30.09 in 10.0 mi East 4.6 mph - 0.05 in Rain Light Rain
7:35 AM 55.4 °F 53.6 °F 94% 30.08 in 10.0 mi SW 6.9 mph - 0.07 in Rain Light Rain
7:55 AM 57.2 °F 55.4 °F 94% 30.09 in 10.0 mi NW 4.6 mph - 0.07 in   Scattered Clouds
8:15 AM 57.2 °F 55.4 °F 94% 30.10 in 10.0 mi NE 3.5 mph - N/A   Scattered Clouds
8:35 AM 59.0 °F 55.4 °F 88% 30.10 in 10.0 mi NE 3.5 mph - N/A   Scattered Clouds
8:55 AM 60.8 °F 57.2 °F 88% 30.10 in 10.0 mi ESE 6.9 mph - N/A   Mostly Cloudy
9:15 AM 60.8 °F 57.2 °F 88% 30.11 in 10.0 mi ESE 5.8 mph - N/A   Overcast
9:35 AM 60.8 °F 55.4 °F 82% 30.11 in 10.0 mi East 4.6 mph - N/A   Overcast
9:55 AM 59.0 °F 55.4 °F 88% 30.13 in 10.0 mi ENE 4.6 mph - N/A   Overcast
10:15 AM 59.0 °F 55.4 °F 88% 30.13 in 10.0 mi East 4.6 mph - N/A   Mostly Cloudy
10:35 AM 60.8 °F 55.4 °F 82% 30.11 in 10.0 mi ESE 8.1 mph - N/A   Mostly Cloudy
10:55 AM 60.8 °F 55.4 °F 82% 30.06 in 10.0 mi ESE 8.1 mph - N/A   Clear
11:15 AM 62.6 °F 57.2 °F 82% 30.02 in 10.0 mi SE 11.5 mph 16.1 mph N/A   Clear
11:35 AM 64.4 °F 57.2 °F 77% 30.09 in 10.0 mi NNE 12.7 mph - N/A   Scattered Clouds
11:55 AM 64.4 °F 57.2 °F 77% 30.06 in 10.0 mi East 8.1 mph - N/A   Scattered Clouds
12:15 PM 64.4 °F 57.2 °F 77% 30.09 in 10.0 mi ENE 10.4 mph - N/A   Scattered Clouds
12:35 PM 64.4 °F 57.2 °F 77% 30.09 in 10.0 mi East 9.2 mph - N/A   Scattered Clouds
12:55 PM 64.4 °F 57.2 °F 77% 30.07 in 10.0 mi ESE 9.2 mph 16.1 mph N/A   Clear
1:15 PM 64.4 °F 57.2 °F 77% 30.07 in 10.0 mi SE 10.4 mph - N/A   Scattered Clouds
1:35 PM 66.2 °F 59.0 °F 78% 30.07 in 10.0 mi SE 6.9 mph - N/A   Scattered Clouds
1:55 PM 66.2 °F 59.0 °F 78% 30.06 in 10.0 mi SE 11.5 mph 16.1 mph N/A   Scattered Clouds
2:15 PM 68.0 °F 59.0 °F 73% 30.05 in 10.0 mi SE 11.5 mph 18.4 mph N/A   Scattered Clouds
2:35 PM 66.2 °F 57.2 °F 73% 30.05 in 10.0 mi SE 5.8 mph - N/A   Clear
2:55 PM 69.8 °F 59.0 °F 68% 30.05 in 10.0 mi SE 4.6 mph - N/A   Scattered Clouds
3:15 PM 68.0 °F 59.0 °F 73% 30.05 in 10.0 mi SE 4.6 mph - N/A   Scattered Clouds
3:35 PM 68.0 °F 59.0 °F 73% 30.04 in 10.0 mi SE 6.9 mph - N/A   Scattered Clouds
3:55 PM 71.6 °F 60.8 °F 69% 30.04 in 10.0 mi ESE 5.8 mph - N/A   Scattered Clouds
4:15 PM 73.4 °F 60.8 °F 65% 30.04 in 10.0 mi SE 9.2 mph - N/A   Scattered Clouds
4:35 PM 73.4 °F 60.8 °F 65% 30.04 in 10.0 mi SSE 8.1 mph - N/A   Scattered Clouds
4:55 PM 75.2 °F 62.6 °F 65% 30.02 in 10.0 mi SSE 9.2 mph - N/A   Scattered Clouds
5:15 PM 75.2 °F 62.6 °F 65% 30.02 in 7.0 mi SE 8.1 mph - N/A   Clear
5:35 PM 75.2 °F 62.6 °F 65% 30.02 in 7.0 mi SSE 8.1 mph - N/A   Clear
5:55 PM 75.2 °F 60.8 °F 61% 30.02 in 10.0 mi SSE 8.1 mph - N/A   Scattered Clouds
6:15 PM 75.2 °F 62.6 °F 65% 30.02 in 7.0 mi SSE 6.9 mph - N/A   Scattered Clouds
6:35 PM 73.4 °F 60.8 °F 65% 30.01 in 7.0 mi SE 8.1 mph - N/A   Scattered Clouds
6:55 PM 73.4 °F 60.8 °F 65% 30.00 in 10.0 mi ESE 8.1 mph - N/A   Clear
7:15 PM 73.4 °F 60.8 °F 65% 30.00 in 10.0 mi ESE 9.2 mph 17.3 mph N/A   Scattered Clouds
7:35 PM 71.6 °F 60.8 °F 69% 30.01 in 10.0 mi ESE 9.2 mph - N/A   Mostly Cloudy
7:55 PM 71.6 °F 60.8 °F 69% 30.01 in 10.0 mi SE 8.1 mph - N/A   Mostly Cloudy
8:15 PM 69.8 °F 60.8 °F 73% 30.00 in 10.0 mi ESE 9.2 mph - N/A   Scattered Clouds
8:35 PM 69.8 °F 60.8 °F 73% 30.01 in 10.0 mi ESE 8.1 mph - N/A   Scattered Clouds
8:55 PM 68.0 °F 60.8 °F 78% 30.02 in 10.0 mi ESE 4.6 mph - N/A   Scattered Clouds
9:15 PM 66.2 °F 60.8 °F 83% 30.03 in 10.0 mi ESE 5.8 mph - N/A   Mostly Cloudy
9:35 PM 66.2 °F 60.8 °F 83% 30.04 in 10.0 mi East 6.9 mph - N/A   Mostly Cloudy
9:55 PM 66.2 °F 60.8 °F 83% 30.05 in 10.0 mi Calm Calm - N/A   Mostly Cloudy
10:15 PM 64.4 °F 60.8 °F 88% 30.06 in 10.0 mi East 5.8 mph - N/A   Mostly Cloudy
10:35 PM 64.4 °F 59.0 °F 83% 30.07 in 10.0 mi East 6.9 mph - N/A   Scattered Clouds
10:55 PM 62.6 °F 59.0 °F 88% 30.08 in 10.0 mi ESE 5.8 mph - N/A   Clear
11:15 PM 62.6 °F 57.2 °F 82% 30.07 in 10.0 mi ESE 8.1 mph - N/A   Clear
11:35 PM 62.6 °F 57.2 °F 82% 30.07 in 10.0 mi ESE 6.9 mph - N/A   Mostly Cloudy
11:55 PM 62.6 °F 57.2 °F 82% 30.06 in 10.0 mi ESE 6.9 mph - N/A   Mostly Cloudy